Hourly Data Report for October 08, 2014

All times are specified in Local Standard Time (LST). Add 1 hour to adjust for Daylight Saving Time where and when it is observed.

KITCHENER/WATERLOO
ONTARIO

43°27'39.000" N
80°22'43.000" W
321.60 m
6144239
71368
YKF

Download Data

Hourly Data (October 2014)
Hourly Data Report for October 8, 2014
Temp Definition
°C
Dew Point Temp Definition
°C
Rel Hum Definition
%
Wind Dir Definition
10's deg

Wind Spd Definition
km/h
Visibility Definition
km
Stn Press Definition
kPa
Hmdx Definition


Wind Chill Definition


Weather Definition


TIME
00:00 Legend Double Dagger 9.7 8.9 95 27 9 4.8 96.69     Fog
01:00 Legend Double Dagger 10.7 9.6 93 26 17 6.4 96.72     Fog
02:00 Legend Double Dagger 10.5 9.1 91 25 15 6.4 96.71     Fog
03:00 Legend Double Dagger 9.8 8.5 92 26 17 11.3 96.69     LegendNANA
04:00 Legend Double Dagger 9.2 7.7 90 26 17 16.1 96.73     LegendNANA
05:00 Legend Double Dagger 8.6 7.4 92 24 17 16.1 96.76     LegendNANA
06:00 Legend Double Dagger 8.5 7.1 91 24 21 14.5 96.80     LegendNANA
07:00 Legend Double Dagger 8.2 7.1 93 25 17 12.9 96.86     LegendNANA
08:00 Legend Double Dagger 10.0 7.4 84 26 32 16.1 96.92     LegendNANA
09:00 Legend Double Dagger 10.7 4.2 64 27 35 16.1 96.97     LegendNANA
10:00 Legend Double Dagger 11.5 2.3 53 27 37 16.1 97.00     LegendNANA
11:00 Legend Double Dagger 11.1 0.6 48 25 45 16.1 97.08     LegendNANA
12:00 Legend Double Dagger 9.2 0.5 54 26 39 16.1 97.14     LegendNANA
13:00 Legend Double Dagger 10.3 1.1 53 27 34 16.1 97.15     LegendNANA
14:00 Legend Double Dagger 9.3 1.2 57 26 41 16.1 97.19     LegendNANA
15:00 Legend Double Dagger 9.8 0.0 50 26 35 16.1 97.22     LegendNANA
16:00 Legend Double Dagger 10.1 0.5 51 28 37 16.1 97.27     LegendNANA
17:00 Legend Double Dagger 9.5 1.5 57 25 18 16.1 97.30     LegendNANA
18:00 Legend Double Dagger 9.1 2.0 61 23 13 16.1 97.29     LegendNANA
19:00 Legend Double Dagger 8.2 4.4 77 21 9 16.1 97.32     LegendNANA
20:00 Legend Double Dagger 8.9 3.5 69 29 28 16.1 97.42     LegendNANA
21:00 Legend Double Dagger 7.7 3.0 72 29 15 16.1 97.48     LegendNANA
22:00 Legend Double Dagger 6.7 2.8 76 27 17 16.1 97.50     LegendNANA
23:00 Legend Double Dagger 6.4 2.5 76 26 17 16.1 97.52     LegendNANA

Notes on Data Quality.

Legend

  • E = Estimated
  • M = Missing
  • NA = Not Available
  • ‡ = Partner data that is not subject to review by the National Climate Archives
Date modified: